STARLINK-4079, 52666

Orbit data source: Space-Track

STARLINK-4079, 52666 is a payload satellite owned by SpaceX/Seattle (US) in LEO that was launched on Wed, 18 May 2022 UTC via an FALCON 9 launch vehicle from the Air Force Eastern Test Range (AFETR). Payload-class satellites include a variety of spacecraft equipped with specific instruments for various scientific and technological missions. These include communications satellites like Starlink; space stations such as the ISS; scientific satellites like the Hubble; Earth observation satellites from companies like Planet Labs, Umbra, and HawkEye 360; GPS; miniature CubeSats for education and research; and military/defense satellites.

Loading next visibility...
Identifier
52666, 2022-053L
Orbit
LEO
Country
Flag of USUS
Related business
Manufacturer
SpaceX/Seattle
Mission
Operational Commercial Communications
Bus & Motor
STARLINK, Unknown motor
Mass
297 kg wet, ~275 kg dry
Launch date (UTC)
2022-05-18 (4 years ago)
Launch vehicle
FALCON 9
Launch site
Air Force Eastern Test Range (AFETR)
Object type
Payload
Rocket body
Debris
Shape & HBR
Box + 1 Pan, 10.1 m
Radar Cross Section
13.562 m², Large (>1 m²)

Expand to show TLE details & history
Last TLE update: 2 days ago

TLE from 2 days ago
0 STARLINK-4079
1 52666U 22053L   26171.37065433 -.00001139  00000-0 -53493-4 0  9999
2 52666  53.1597  52.6676 0001143  97.2799 262.8322 15.08826043226553
Epoch: 2026-06-20T08:53Z
TLE epoch observation values (Epoch: 2026-06-20T08:53:44.534Z)
Latitude
-0.00003°
Longitude
10.64577°
Altitude
540.776 km
Speed
7.593 km/s
True Right ascension
03h 30m 40s
True Declination
0° 00' 00"
Sunlit
Object was in daylight at epoch
Visualization orbit readout
Latitude
Unknown
Longitude
Unknown
Altitude
Unknown
Speed
Unknown
Apparent Right ascension
Unknown
Apparent Declination
Unknown
Sunlit
N/A
Visualization observer readout
Local Sidereal Time
21:30:07
Azimuth
Unknown
Elevation
Unknown
Doppler factor
Unknown
Orbital elements
Apogee altitude
540.831 km
Perigee altitude
539.249 km
Semi-major axis
6,918.177 km
Eccentricity
0.00011
Inclination
53.1597°
RAAN
52.6676°
Arg. of periapsis
97.2799°
True anomaly
262.8192°
Mean anomaly
262.8322°
Eccentric anomaly
262.8257°
Mean motion
3.77186 °/min
Orbital period
95.44 mins
BSTAR
-0.000053493
Loading maneuver chart data...
Computing Atmospheric mass density...
Loading historical data...
Loading historical data...
Loading historical data...
Loading historical data...
Loading historical data...
Loading historical data...
Loading historical data...

Documentation

Showing up to 5 results
|